Regional Weather Roundup
Issued by NWS

Home | Current Version | Previous Version | Graphics & Text | Print | Product List | Glossary On
Versions: 1 2 3 4 5 6 7 8 9 10 11 12 13 14 15 16 17 18 19 20 21 22 23 24 25 26 27 28 29 30 31 32 33 34 35 36 37 38 39 40 41 42 43 44 45 46 47 48 49 50
000
ASUS43 KOAX 031602
RWRNE

WEATHER ROUNDUP FOR NEBRASKA
NATIONAL WEATHER SERVICE OMAHA NE
1100 AM CDT FRI JUL 03 2015

NOTES: SATELLITE DATA IS BEING USED TO AUGMENT CLOUD COVER ABOVE
       12000 FEET.
       "FAIR" INDICATES FEW OR NO CLOUDS BELOW 12,000 FEET WITH NO
       SIGNIFICANT WEATHER AND/OR OBSTRUCTIONS TO VISIBILITY.

  * THESE STATIONS DO NOT REPORT WEATHER SUCH AS RAIN...SNOW OR FOG.

NEZ001>004-019>022-054>056-031700-
NEBRASKA PANHANDLE

CITY           SKY/WX    TMP DP  RH WIND       PRES   REMARKS
SCOTTSBLUFF    SUNNY     76  55  48 SE8       30.12F
ALLIANCE       SUNNY     74  56  53 CALM      30.12F
CHADRON        SUNNY     74  58  57 CALM      30.09F
KIMBALL          N/A    N/A N/A N/A MISG        N/A
SIDNEY         MOSUNNY   74  55  51 CALM      30.15F
$$

NEZ057>060-069>072-079>082-031700-
SOUTHWEST NEBRASKA

CITY           SKY/WX    TMP DP  RH WIND       PRES   REMARKS
NORTH PLATTE   SUNNY     75  61  61 VRB3      30.08F
IMPERIAL       SUNNY     78  54  43 NE5       30.09F
LEXINGTON      CLOUDY    67  64  89 CALM      30.08F
MCCOOK         SUNNY     74  63  68 E9        30.07F HAZE
$$

NEZ005>010-023>029-035>040-094-031700-
NORTH CENTRAL NEBRASKA

CITY           SKY/WX    TMP DP  RH WIND       PRES   REMARKS
VALENTINE      CLOUDY    76  61  59 NE6       30.06S
AINSWORTH      MOSUNNY   74  62  64 N6        30.07S
BROKEN BOW     PTSUNNY   75  62  64 CALM      30.06F
O`NEILL        CLOUDY    69  65  88 CALM      30.06S
ORD            CLOUDY    71  60  68 CALM      30.05S
$$

NEZ041-046>049-061>064-073>077-083>087-031700-
SOUTH CENTRAL NEBRASKA

CITY           SKY/WX    TMP DP  RH WIND       PRES   REMARKS
GRAND ISLAND   CLOUDY    68  61  78 N5        30.07R
AURORA         CLOUDY    68  65  89 NE3       30.06S FOG
HASTINGS       CLOUDY    70  62  76 N5        30.06S
KEARNEY *      CLOUDY    68  59  73 N6        30.07F
$$

NEZ011>018-030>034-042>045-031700-
NORTHEAST NEBRASKA

CITY           SKY/WX    TMP DP  RH WIND       PRES   REMARKS
NORFOLK        CLOUDY    67  61  81 NW5       30.05S
COLUMBUS *     CLOUDY    66  59  77 CALM      30.06R
FREMONT        SUNNY     71  59  65 NW5       30.04S
TEKAMAH        SUNNY     71  55  56 CALM      30.03R
$$

NEZ050>053-065>068-078-088>093-031700-
SOUTHEAST NEBRASKA

CITY           SKY/WX    TMP DP  RH WIND       PRES   REMARKS
LINCOLN        SUNNY     74  61  63 N7        30.03S
OMAHA EPPLEY   MOSUNNY   71  58  63 NW3       30.03R
FALLS CITY     SUNNY     72  60  66 NE8       30.00R
PLATTSMOUTH    SUNNY     69  55  60 N3        30.03R
$$

NEZ044-045-051>053-067-031700-
OMAHA AREA

CITY           SKY/WX    TMP DP  RH WIND       PRES   REMARKS
OMAHA EPPLEY   MOSUNNY   71  58  63 NW3       30.03R
FREMONT        SUNNY     71  59  65 NW5       30.04S
MILLARD        SUNNY     70  55  58 NE3       30.02S
OFFUTT AFB     MOSUNNY   71  58  64 N3        30.02R
PLATTSMOUTH    SUNNY     69  55  60 N3        30.03R
$$


USA.gov is the U.S. government's official web portal to all federal, state and local government web resources and services.